Location: La Brionne
(46.1728°N, 1.7849°E)
Time: 08:51:42
(UTC+00:00)

In-Cosmos 22 - Pass Details

Date: 16 June 2021
Orbit: 786 x 876 km, 81.2° (Epoch: 02 August)

Event Time Altitude Azimuth Distance (km) Brightness Sun altitude
Exits shadow 21:00:02 - 187° (S) 3,158 6.8 -10.1°
Reaches altitude 10° 21:02:06 10° 187° (S) 2,344 6.1 -10.3°
Maximum altitude 21:07:23 84° 99° (E) 796 4.0 -10.9°
Drops below altitude 10° 21:12:42 10° 12° (NNE) 2,361 7.1 -11.5°
Sets 21:15:05 0° 12° (NNE) 3,300 7.9 -11.7°
